Time,TemperatureF,DewpointF,PressureIn,WindDirection,WindDirectionDegrees,WindSpeedMPH,WindSpeedGustMPH,Humidity,HourlyPrecipIn,Conditions,Clouds,dailyrainin,SoftwareType,DateUTC
2013-01-06 00:17:00,33.9,28.0,30.09,SW,214,2.0,-999.0,80,-99.99,,,0.00,weatherlink.com 1.10,2013-01-06 05:17:00,
2013-01-06 00:32:00,34.0,29.0,30.09,SSW,195,1.0,-999.0,81,-99.99,,,0.00,weatherlink.com 1.10,2013-01-06 05:32:00,
2013-01-06 00:47:00,34.3,29.0,30.08,SSW,209,2.0,-999.0,81,-99.99,,,0.00,weatherlink.com 1.10,2013-01-06 05:47:00,
2013-01-06 01:02:00,34.7,29.0,30.08,WSW,242,2.0,-999.0,81,-99.99,,,0.00,weatherlink.com 1.10,2013-01-06 06:02:00,
2013-01-06 01:17:00,37.0,30.0,30.07,West,268,6.0,-999.0,77,-99.99,,,0.00,weatherlink.com 1.10,2013-01-06 06:17:00,
2013-01-06 01:32:00,36.8,31.0,30.06,WSW,250,17.0,-999.0,79,-99.99,,,0.00,weatherlink.com 1.10,2013-01-06 06:32:00,
2013-01-06 01:47:00,36.3,31.0,30.05,SSW,202,9.0,-999.0,82,-99.99,,,0.00,weatherlink.com 1.10,2013-01-06 06:47:00,
2013-01-06 02:02:00,36.0,32.0,30.05,SSW,208,8.0,-999.0,84,-99.99,,,0.00,weatherlink.com 1.10,2013-01-06 07:02:00,
2013-01-06 02:17:00,35.8,32.0,30.05,WSW,241,4.0,-999.0,86,-99.99,,,0.00,weatherlink.com 1.10,2013-01-06 07:17:00,
2013-01-06 02:32:00,36.0,33.0,30.05,SW,215,5.0,-999.0,87,-99.99,,,0.00,weatherlink.com 1.10,2013-01-06 07:32:00,
2013-01-06 02:47:00,36.2,33.0,30.04,WSW,257,7.0,-999.0,87,-99.99,,,0.00,weatherlink.com 1.10,2013-01-06 07:47:00,
2013-01-06 03:02:00,36.4,33.0,30.04,SW,223,3.0,-999.0,87,-99.99,,,0.00,weatherlink.com 1.10,2013-01-06 08:02:00,
2013-01-06 03:17:00,36.5,33.0,30.03,WSW,254,4.0,-999.0,87,-99.99,,,0.00,weatherlink.com 1.10,2013-01-06 08:17:00,
2013-01-06 03:32:00,36.7,33.0,30.02,SW,227,8.0,-999.0,87,-99.99,,,0.00,weatherlink.com 1.10,2013-01-06 08:32:00,
2013-01-06 03:47:00,36.6,33.0,30.02,West,270,14.0,-999.0,88,-99.99,,,0.00,weatherlink.com 1.10,2013-01-06 08:47:00,
2013-01-06 04:02:00,36.5,33.0,30.02,West,261,10.0,-999.0,88,-99.99,,,0.00,weatherlink.com 1.10,2013-01-06 09:02:00,
2013-01-06 04:17:00,36.3,33.0,30.01,WSW,246,13.0,-999.0,89,-99.99,,,0.00,weatherlink.com 1.10,2013-01-06 09:17:00,
2013-01-06 04:32:00,36.0,34.0,30.01,WNW,294,9.0,-999.0,91,-99.99,,,0.00,weatherlink.com 1.10,2013-01-06 09:32:00,
2013-01-06 04:47:00,35.8,34.0,30.01,West,268,9.0,-999.0,92,-99.99,,,0.00,weatherlink.com 1.10,2013-01-06 09:47:00,
2013-01-06 05:02:00,35.7,34.0,30.00,WSW,248,11.0,-999.0,92,-99.99,,,0.00,weatherlink.com 1.10,2013-01-06 10:02:00,
2013-01-06 05:17:00,36.1,34.0,30.00,WSW,243,10.0,-999.0,92,-99.99,,,0.00,weatherlink.com 1.10,2013-01-06 10:17:00,
2013-01-06 05:32:00,36.3,34.0,30.00,WSW,243,6.0,-999.0,91,-99.99,,,0.00,weatherlink.com 1.10,2013-01-06 10:32:00,
2013-01-06 05:47:00,36.5,34.0,30.00,WSW,247,15.0,-999.0,90,-99.99,,,0.00,weatherlink.com 1.10,2013-01-06 10:47:00,
2013-01-06 06:02:00,36.6,34.0,29.99,SW,225,5.0,-999.0,89,-99.99,,,0.00,weatherlink.com 1.10,2013-01-06 11:02:00,
2013-01-06 06:17:00,36.7,34.0,29.99,West,266,11.0,-999.0,89,-99.99,,,0.00,weatherlink.com 1.10,2013-01-06 11:17:00,
2013-01-06 06:32:00,36.8,34.0,29.99,SW,228,7.0,-999.0,88,-99.99,,,0.00,weatherlink.com 1.10,2013-01-06 11:32:00,
2013-01-06 06:47:00,36.9,34.0,29.98,WSW,239,10.0,-999.0,88,-99.99,,,0.00,weatherlink.com 1.10,2013-01-06 11:47:00,
2013-01-06 07:02:00,37.1,34.0,29.99,West,279,8.0,-999.0,88,-99.99,,,0.00,weatherlink.com 1.10,2013-01-06 12:02:00,
2013-01-06 07:17:00,37.3,34.0,29.99,SW,215,4.0,-999.0,87,-99.99,,,0.00,weatherlink.com 1.10,2013-01-06 12:17:00,
2013-01-06 07:32:00,37.4,34.0,29.99,West,262,14.0,-999.0,87,-99.99,,,0.00,weatherlink.com 1.10,2013-01-06 12:32:00,
2013-01-06 07:47:00,37.2,34.0,29.98,WSW,244,14.0,-999.0,88,-99.99,,,0.00,weatherlink.com 1.10,2013-01-06 12:47:00,
2013-01-06 08:03:00,37.0,34.0,29.97,WSW,244,6.0,-999.0,88,-99.99,,,0.00,weatherlink.com 1.10,2013-01-06 13:03:00,
2013-01-06 08:18:00,36.9,34.0,29.98,WSW,237,5.0,-999.0,89,-99.99,,,0.00,weatherlink.com 1.10,2013-01-06 13:18:00,
2013-01-06 08:33:00,37.0,34.0,29.98,SSW,211,5.0,-999.0,89,-99.99,,,0.00,weatherlink.com 1.10,2013-01-06 13:33:00,
2013-01-06 08:48:00,37.0,34.0,29.98,SW,225,6.0,-999.0,89,-99.99,,,0.00,weatherlink.com 1.10,2013-01-06 13:48:00,
2013-01-06 09:03:00,37.0,34.0,29.98,WSW,253,10.0,-999.0,89,-99.99,,,0.00,weatherlink.com 1.10,2013-01-06 14:03:00,
2013-01-06 09:18:00,37.2,34.0,29.98,WSW,243,5.0,-999.0,88,-99.99,,,0.00,weatherlink.com 1.10,2013-01-06 14:18:00,
2013-01-06 09:33:00,37.4,34.0,29.98,WSW,238,7.0,-999.0,87,-99.99,,,0.00,weatherlink.com 1.10,2013-01-06 14:33:00,
2013-01-06 09:48:00,37.3,34.0,29.98,SW,218,11.0,-999.0,87,-99.99,,,0.00,weatherlink.com 1.10,2013-01-06 14:48:00,
2013-01-06 10:03:00,37.0,34.0,29.98,SSW,213,8.0,-999.0,88,-99.99,,,0.00,weatherlink.com 1.10,2013-01-06 15:03:00,
2013-01-06 10:18:00,37.0,34.0,29.99,West,268,7.0,-999.0,89,-99.99,,,0.01,weatherlink.com 1.10,2013-01-06 15:18:00,
2013-01-06 10:33:00,36.7,34.0,29.99,SSW,202,11.0,-999.0,89,-99.99,,,0.01,weatherlink.com 1.10,2013-01-06 15:33:00,
2013-01-06 10:48:00,36.7,34.0,29.98,WSW,254,8.0,-999.0,90,-99.99,,,0.01,weatherlink.com 1.10,2013-01-06 15:48:00,
2013-01-06 11:03:00,36.8,34.0,29.98,SW,215,6.0,-999.0,90,-99.99,,,0.01,weatherlink.com 1.10,2013-01-06 16:03:00,
2013-01-06 11:18:00,36.7,34.0,29.97,WSW,246,8.0,-999.0,90,-99.99,,,0.01,weatherlink.com 1.10,2013-01-06 16:18:00,
2013-01-06 11:33:00,36.6,34.0,29.97,West,267,4.0,-999.0,91,-99.99,,,0.01,weatherlink.com 1.10,2013-01-06 16:33:00,
2013-01-06 11:48:00,36.6,34.0,29.95,SW,220,11.0,-999.0,91,-99.99,,,0.01,weatherlink.com 1.10,2013-01-06 16:48:00,
2013-01-06 12:03:00,37.0,35.0,29.95,WSW,254,8.0,-999.0,91,-99.99,,,0.01,weatherlink.com 1.10,2013-01-06 17:03:00,
2013-01-06 12:18:00,37.1,35.0,29.95,WSW,254,13.0,-999.0,90,-99.99,,,0.01,weatherlink.com 1.10,2013-01-06 17:18:00,
2013-01-06 12:33:00,37.2,34.0,29.95,WSW,238,10.0,-999.0,89,-99.99,,,0.01,weatherlink.com 1.10,2013-01-06 17:33:00,
2013-01-06 12:48:00,37.1,34.0,29.95,WSW,248,10.0,-999.0,89,-99.99,,,0.01,weatherlink.com 1.10,2013-01-06 17:48:00,
2013-01-06 13:03:00,36.9,34.0,29.95,WNW,285,12.0,-999.0,90,-99.99,,,0.01,weatherlink.com 1.10,2013-01-06 18:03:00,
2013-01-06 13:18:00,36.6,34.0,29.94,SW,236,11.0,-999.0,90,-99.99,,,0.01,weatherlink.com 1.10,2013-01-06 18:18:00,
2013-01-06 13:33:00,36.9,34.0,29.95,WSW,240,11.0,-999.0,90,-99.99,,,0.01,weatherlink.com 1.10,2013-01-06 18:33:00,
2013-01-06 13:48:00,36.9,34.0,29.94,WSW,237,12.0,-999.0,90,-99.99,,,0.01,weatherlink.com 1.10,2013-01-06 18:48:00,
2013-01-06 14:03:00,37.0,34.0,29.94,West,267,17.0,-999.0,90,-99.99,,,0.01,weatherlink.com 1.10,2013-01-06 19:03:00,
2013-01-06 14:18:00,37.0,34.0,29.94,West,264,12.0,-999.0,90,-99.99,,,0.01,weatherlink.com 1.10,2013-01-06 19:18:00,
2013-01-06 14:33:00,37.0,34.0,29.94,West,264,9.0,-999.0,89,-99.99,,,0.01,weatherlink.com 1.10,2013-01-06 19:33:00,
2013-01-06 14:48:00,36.7,34.0,29.95,WNW,284,9.0,-999.0,90,-99.99,,,0.01,weatherlink.com 1.10,2013-01-06 19:48:00,
2013-01-06 15:18:00,36.8,34.0,29.95,WNW,282,9.0,-999.0,90,-99.99,,,0.01,weatherlink.com 1.10,2013-01-06 20:18:00,
2013-01-06 15:33:00,36.9,34.0,29.96,West,259,10.0,-999.0,90,-99.99,,,0.01,weatherlink.com 1.10,2013-01-06 20:33:00,
2013-01-06 15:48:00,36.9,34.0,29.97,WSW,243,12.0,-999.0,89,-99.99,,,0.01,weatherlink.com 1.10,2013-01-06 20:48:00,
2013-01-06 16:03:00,36.8,34.0,29.97,WSW,257,8.0,-999.0,89,-99.99,,,0.01,weatherlink.com 1.10,2013-01-06 21:03:00,
2013-01-06 16:18:00,36.7,34.0,29.98,SW,227,7.0,-999.0,89,-99.99,,,0.01,weatherlink.com 1.10,2013-01-06 21:18:00,
2013-01-06 16:33:00,36.8,34.0,29.98,WSW,247,10.0,-999.0,89,-99.99,,,0.01,weatherlink.com 1.10,2013-01-06 21:33:00,
2013-01-06 16:48:00,36.8,34.0,29.99,SSW,211,10.0,-999.0,89,-99.99,,,0.01,weatherlink.com 1.10,2013-01-06 21:48:00,
2013-01-06 17:03:00,36.8,34.0,29.99,SW,218,9.0,-999.0,89,-99.99,,,0.01,weatherlink.com 1.10,2013-01-06 22:03:00,
2013-01-06 17:18:00,36.5,34.0,30.00,WSW,247,15.0,-999.0,89,-99.99,,,0.01,weatherlink.com 1.10,2013-01-06 22:18:00,
2013-01-06 17:33:00,36.5,34.0,30.00,SSW,213,10.0,-999.0,90,-99.99,,,0.01,weatherlink.com 1.10,2013-01-06 22:33:00,
2013-01-06 17:48:00,36.6,34.0,30.00,West,260,9.0,-999.0,89,-99.99,,,0.01,weatherlink.com 1.10,2013-01-06 22:48:00,
2013-01-06 18:03:00,36.6,34.0,30.01,SW,229,7.0,-999.0,89,-99.99,,,0.01,weatherlink.com 1.10,2013-01-06 23:03:00,
2013-01-06 18:18:00,36.4,34.0,30.02,WSW,252,8.0,-999.0,90,-99.99,,,0.01,weatherlink.com 1.10,2013-01-06 23:18:00,
2013-01-06 18:48:00,36.0,34.0,30.04,West,275,6.0,-999.0,91,-99.99,,,0.02,weatherlink.com 1.10,2013-01-06 23:48:00,
2013-01-06 19:03:00,36.0,34.0,30.04,West,275,10.0,-999.0,91,-99.99,,,0.02,weatherlink.com 1.10,2013-01-07 00:03:00,
2013-01-06 19:18:00,36.1,34.0,30.05,WSW,237,7.0,-999.0,91,-99.99,,,0.02,weatherlink.com 1.10,2013-01-07 00:18:00,
2013-01-06 19:33:00,36.1,34.0,30.05,SW,230,3.0,-999.0,91,-99.99,,,0.02,weatherlink.com 1.10,2013-01-07 00:33:00,
2013-01-06 19:48:00,35.9,34.0,30.06,West,263,6.0,-999.0,91,-99.99,,,0.02,weatherlink.com 1.10,2013-01-07 00:48:00,
2013-01-06 20:03:00,35.7,33.0,30.06,WSW,254,4.0,-999.0,91,-99.99,,,0.02,weatherlink.com 1.10,2013-01-07 01:03:00,
2013-01-06 20:18:00,35.5,33.0,30.07,WSW,250,5.0,-999.0,92,-99.99,,,0.02,weatherlink.com 1.10,2013-01-07 01:18:00,
2013-01-06 20:33:00,35.5,33.0,30.07,SW,225,6.0,-999.0,92,-99.99,,,0.02,weatherlink.com 1.10,2013-01-07 01:33:00,
2013-01-06 20:48:00,35.5,33.0,30.07,West,273,7.0,-999.0,92,-99.99,,,0.02,weatherlink.com 1.10,2013-01-07 01:48:00,
2013-01-06 21:03:00,35.4,33.0,30.08,West,260,6.0,-999.0,92,-99.99,,,0.02,weatherlink.com 1.10,2013-01-07 02:03:00,
2013-01-06 21:18:00,35.4,33.0,30.09,West,271,3.0,-999.0,92,-99.99,,,0.02,weatherlink.com 1.10,2013-01-07 02:18:00,
2013-01-06 21:33:00,35.4,33.0,30.09,West,275,4.0,-999.0,92,-99.99,,,0.02,weatherlink.com 1.10,2013-01-07 02:33:00,
2013-01-06 21:48:00,35.5,34.0,30.09,West,281,6.0,-999.0,93,-99.99,,,0.02,weatherlink.com 1.10,2013-01-07 02:48:00,
2013-01-06 22:03:00,36.0,34.0,30.10,WNW,302,6.0,-999.0,93,-99.99,,,0.02,weatherlink.com 1.10,2013-01-07 03:03:00,
2013-01-06 22:18:00,36.9,35.0,30.11,NNW,347,7.0,-999.0,92,-99.99,,,0.02,weatherlink.com 1.10,2013-01-07 03:18:00,
2013-01-06 22:33:00,36.2,34.0,30.12,North,350,15.0,-999.0,90,-99.99,,,0.02,weatherlink.com 1.10,2013-01-07 03:33:00,
2013-01-06 22:48:00,35.9,33.0,30.14,North,360,12.0,-999.0,89,-99.99,,,0.02,weatherlink.com 1.10,2013-01-07 03:48:00,
2013-01-06 23:03:00,35.2,32.0,30.15,NNW,348,13.0,-999.0,88,-99.99,,,0.02,weatherlink.com 1.10,2013-01-07 04:03:00,
2013-01-06 23:18:00,34.8,32.0,30.16,North,355,10.0,-999.0,88,-99.99,,,0.02,weatherlink.com 1.10,2013-01-07 04:18:00,
2013-01-06 23:33:00,33.8,31.0,30.18,NNW,331,15.0,-999.0,89,-99.99,,,0.02,weatherlink.com 1.10,2013-01-07 04:33:00,
2013-01-06 23:48:00,33.3,30.0,30.19,North,355,10.0,-999.0,88,-99.99,,,0.02,weatherlink.com 1.10,2013-01-07 04:48:00,